User: anonymous
Location: Norwich
(52.6280°N, 1.3030°E)
Time: 10:34:29
(UTC+01:00)
Language:

APEX - Orbit

View from above orbital plane
View from above orbital plane
View from above satellite
View from above satellite

Ground track
Ground track

The orbit data is extracted from the following two-line orbital elements,

1 23191U 94046A   14259.72117003  .00033922  00000-0  13538-2 0  9958
2 23191 069.9223 343.2871 0735065 177.4514 312.0794 14.06173379973389
Epoch (UTC): 16 September 2014 17:18:29
Eccentricity: 0.0735065
inclination: 69.9223°
perigee height: 339 km
apogee height: 1405 km
right ascension of ascending node: 343.2871°
argument of perigee: 177.4514°
revolutions per day: 14.06173379
mean anomaly at epoch: 312.0794°
orbit number at epoch: 97338

The dashed part of the orbit path shows where the satellite is in the earth's shadow,  

DLR